Flag for U.S.A. Weather past 2 weeks in Long Beach, California, U.S.A.

Now
71 °F

Overcast.


Feels Like: 76 °F
Forecast: 66 / 75 °F
Wind: 5 mph from South

Location: Fullerton Municipal Airport

Current Time: Sep 4, 2015 at 10:02:37 AM

Latest Report: Sep 4, 2015 at 8:53 AM


Visibility: 10 mi

Pressure: 29.88 "Hg

Humidity: 59%

Dew point: 56 °F

Location of Long BeachLocation

Historic Weather in Long Beach — Graph

°F

Long Beach temperature yesterday

Maximum temperature yesterday: 79 °F (at 2:53 PM)
Minimum temperature yesterday: 68 °F (at 2:53 AM)
Average temperature yesterday: 72 °F

Past Weeks' High & Low Weather Summary

 TemperatureHumidityPressure
High98 °F (Aug 28, 1:53 PM)88% (Aug 30, 5:02 AM)29.97 "Hg (Aug 30, 5:02 AM)
Low67 °F (Aug 23, 4:53 AM)22% (Aug 28, 1:53 PM)29.79 "Hg (Aug 28, 5:53 PM)
Average77 °F64%29.88 "Hg
* Reported Aug 20 8:53 AM — Sep 4 8:53 AM, Long Beach, Weather by CustomWeather, © 2015

Note: Actual official high and low records may vary slightly from our data, if they occured in-between our weather recording intervals... More about our weather records

Advertising

Long Beach weather history for previous 24 hours

 ConditionsComfort  
Time TempWeatherWind HumidityBarometerVisibility
8:53 AM
Fri, Sep 4
71 °FOvercast.5 mph59%29.88 "Hg10 mi
7:53 AM70 °FOvercast.5 mph64%29.88 "Hg10 mi
6:53 AM70 °FOvercast.5 mph64%29.86 "Hg10 mi
5:53 AM69 °FOvercast.5 mph66%29.85 "Hg10 mi
4:53 AM69 °FOvercast.5 mph66%29.84 "Hg10 mi
3:53 AM68 °FPassing clouds.3 mph70%29.84 "Hg10 mi
2:53 AM68 °FPassing clouds.3 mph73%29.85 "Hg10 mi
1:53 AM68 °FPassing clouds.5 mph70%29.84 "Hg10 mi
12:53 AM68 °FClear.3 mph73%29.85 "Hg10 mi
11:53 PM
Thu, Sep 3
69 °FClear.6 mph70%29.85 "Hg10 mi
10:53 PM69 °FPassing clouds.3 mph70%29.85 "Hg10 mi
9:53 PM69 °FPassing clouds.5 mph70%29.85 "Hg10 mi
8:53 PM70 °FClear.5 mph68%29.83 "Hg10 mi
7:53 PM70 °FSunny.5 mph68%29.82 "Hg10 mi
6:53 PM73 °FSunny.8 mph62%29.81 "Hg10 mi
5:53 PM75 °FSunny.8 mph55%29.80 "Hg10 mi
4:53 PM77 °FSunny.8 mph50%29.80 "Hg10 mi
3:53 PM77 °FSunny.10 mph50%29.81 "Hg10 mi
2:53 PM79 °FSunny.7 mph47%29.83 "Hg10 mi
1:53 PM78 °FSunny.5 mph48%29.85 "Hg10 mi
12:53 PM78 °FSunny.No wind48%29.88 "Hg10 mi
11:53 AM74 °FPartly sunny.No wind56%29.90 "Hg10 mi
10:53 AM73 °FOvercast.5 mph59%29.92 "Hg10 mi
Weather by CustomWeather, © 2015

See weather overviewHow to use our weather pages